Погода в Абыем

Россия / Республика Саха (Якутия)     68°23′32″N   145°04′33″E
темп.,
°C
ветер,
м/с
пор.,
м/с
влажн.,
%
обл.,
%
осадки,
мм/ч
давл.,
гПа
погр.,
м
13 августа, сб
сб1323:00+10св466594 0.0 1012117
02:00+11св5860100 0.0 1013279
05:00+11всв61056100 0.0 1013336
08:00+12всв6957100 0.0 1013389
11:00+12в6857100 0.0 1013385
14:00+12в6858100 0.0 1013472
17:00+12всв6955100 0.0 1013515
20:00+9всв81163100 0.2 1014399
14 августа, вс
вс1423:00+7св71182100 0.4 1016344
02:00+6св71090100 0.5 1016321
05:00+6св61091100 0.8 1017377
08:00+6всв6989100 0.0 1018391
11:00+6всв6885100 0.0 1018379
14:00+10в676995 0.0 1018789
17:00+11в666399 0.0 1018985
20:00+10в676467 0.0 1018896
15 августа, пн
пн1523:00+6в5107839 0.0 1019326
02:00+4в6108265 0.0 1018314
05:00+3в598841 0.0 1018230
08:00+6вюв567064 0.0 1017398
11:00+11вюв67540 0.0 1016903
14:00+14юв56453 0.0 10151208
17:00+16юв56420 0.0 10131336
20:00+15вюв68470 0.0 1012811
16 августа, вт
вт1623:00+9в511600 0.0 1012197
02:00+7в510640 0.0 1012155
05:00+6в49730 0.0 1011159
08:00+10вюв67675 0.0 1010370
11:00+14вюв67522 0.0 1009915
14:00+17вюв674358 0.0 10071207
17:00+18вюв77395 0.0 10051310
20:00+16вюв68445 0.0 1005650
17 августа, ср
ср1723:00+11в486457 0.0 1005111
02:00+9в467395 0.0 100586
05:00+8всв4774100 0.0 1005112
08:00+10всв5657100 0.0 1005243
11:00+13в5652100 0.0 1004589
14:00+10всв4779100 0.3 1004278
17:00+16вюв4654100 0.3 1003907
20:00+12вюв1274100 0.1 100318